{"data":{"norad_id":63178,"epoch":"2026-09-22T12:06:07.966368Z","epoch_age_seconds":138050,"freshness":"FRESH","line1":"1 63178U 25047A   26265.50425887  .00000321  00000+0  55414-4 0  9991","line2":"2 63178  97.9582  89.2961 0010499 199.3496 160.7315 14.74850425 82425","mean_motion":14.74850425,"eccentricity":0.0010499,"inclination_deg":97.9582,"raan_deg":89.2961,"arg_perigee_deg":199.3496,"mean_anomaly_deg":160.7315,"bstar":5.5414e-5,"rev_number":8242,"period_min":97.637019699811,"perigee_km":638.25186889892,"apogee_km":653.00036669367,"semimajor_km":7023.7631177963,"source":"CELESTRAK","updated_at":"2026-09-23T09:00:21.883719Z"}}